Time,TemperatureF,DewpointF,PressureIn,WindDirection,WindDirectionDegrees,WindSpeedMPH,WindSpeedGustMPH,Humidity,HourlyPrecipIn,Conditions,Clouds,dailyrainin,SolarRadiationWatts/m^2,SoftwareType,DateUTC
2013-08-08 00:01:00,52.0,52.0,-100.00,SW,227,1.0,4.0,100,0.01,,,0.05,0.000000,,2013-08-08 07:01:00,
2013-08-08 00:12:00,52.0,52.0,-100.00,SW,227,1.0,4.0,100,0.01,,,0.05,0.000000,,2013-08-08 07:12:00,
2013-08-08 00:43:00,52.0,52.0,-100.00,WSW,240,2.0,3.0,100,0.01,,,0.06,0.000000,,2013-08-08 07:43:00,
2013-08-08 00:53:00,52.0,52.0,-100.00,WSW,240,2.0,3.0,100,0.01,,,0.06,0.000000,,2013-08-08 07:53:00,
2013-08-08 01:01:00,52.0,52.0,-100.00,WSW,240,2.0,3.0,100,0.01,,,0.06,0.000000,,2013-08-08 08:01:00,
2013-08-08 01:11:00,52.0,52.0,-100.00,WSW,240,2.0,3.0,100,0.01,,,0.06,0.000000,,2013-08-08 08:11:00,
2013-08-08 01:32:00,52.0,52.0,-100.00,SSW,198,2.0,3.0,100,0.00,,,0.05,0.000000,,2013-08-08 08:32:00,
2013-08-08 01:43:00,52.0,52.0,-100.00,SSW,198,2.0,3.0,100,0.00,,,0.05,0.000000,,2013-08-08 08:43:00,
2013-08-08 01:53:00,52.0,52.0,-100.00,SSW,198,2.0,3.0,100,0.00,,,0.05,0.000000,,2013-08-08 08:53:00,
2013-08-08 02:01:00,52.0,52.0,-100.00,SSW,198,2.0,3.0,100,0.00,,,0.05,0.000000,,2013-08-08 09:01:00,
2013-08-08 02:11:00,52.0,52.0,-100.00,SSW,198,2.0,3.0,100,0.00,,,0.05,0.000000,,2013-08-08 09:11:00,
2013-08-08 02:43:00,52.0,52.0,-100.00,ESE,109,1.0,2.0,100,0.00,,,0.05,0.000000,,2013-08-08 09:43:00,
2013-08-08 02:53:00,52.0,52.0,-100.00,ESE,109,1.0,2.0,100,0.00,,,0.05,0.000000,,2013-08-08 09:53:00,
2013-08-08 03:01:00,52.0,52.0,-100.00,ESE,109,1.0,2.0,100,0.00,,,0.05,0.000000,,2013-08-08 10:01:00,
2013-08-08 03:11:00,52.0,52.0,-100.00,ESE,109,1.0,2.0,100,0.00,,,0.05,0.000000,,2013-08-08 10:11:00,
2013-08-08 03:43:00,52.0,52.0,-100.00,ESE,105,1.0,2.0,100,0.00,,,0.05,0.000000,,2013-08-08 10:43:00,
2013-08-08 03:52:00,52.0,52.0,-100.00,ESE,105,1.0,2.0,100,0.00,,,0.05,0.000000,,2013-08-08 10:52:00,
2013-08-08 04:01:00,52.0,52.0,-100.00,ESE,105,1.0,2.0,100,0.00,,,0.05,0.000000,,2013-08-08 11:01:00,
2013-08-08 04:11:00,52.0,52.0,-100.00,ESE,105,1.0,2.0,100,0.00,,,0.05,0.000000,,2013-08-08 11:11:00,
2013-08-08 04:43:00,52.0,52.0,-100.00,SE,144,1.0,3.0,100,0.01,,,0.06,0.000000,,2013-08-08 11:43:00,
2013-08-08 04:52:00,52.0,52.0,-100.00,SE,144,1.0,3.0,100,0.01,,,0.06,0.000000,,2013-08-08 11:52:00,
2013-08-08 05:01:00,52.0,52.0,-100.00,SE,144,1.0,3.0,100,0.01,,,0.06,0.000000,,2013-08-08 12:01:00,
2013-08-08 05:11:00,52.0,52.0,-100.00,SE,144,1.0,3.0,100,0.01,,,0.06,0.000000,,2013-08-08 12:11:00,
2013-08-08 05:43:00,52.0,52.0,-100.00,SE,136,2.0,3.0,100,0.00,,,0.06,0.000000,,2013-08-08 12:43:00,
2013-08-08 05:53:00,52.0,52.0,-100.00,SE,136,2.0,3.0,100,0.00,,,0.06,0.000000,,2013-08-08 12:53:00,
2013-08-08 06:01:00,52.0,52.0,-100.00,SE,136,2.0,3.0,100,0.00,,,0.06,0.000000,,2013-08-08 13:01:00,
2013-08-08 06:11:00,52.0,52.0,-100.00,SE,136,2.0,3.0,100,0.00,,,0.06,0.000000,,2013-08-08 13:11:00,
2013-08-08 06:43:00,52.0,52.0,-100.00,ENE,68,1.0,3.0,100,0.00,,,0.06,0.000000,,2013-08-08 13:43:00,
2013-08-08 06:53:00,52.0,52.0,-100.00,ENE,68,1.0,3.0,100,0.00,,,0.06,0.000000,,2013-08-08 13:53:00,
2013-08-08 07:02:00,52.0,52.0,-100.00,ENE,68,1.0,3.0,100,0.00,,,0.06,0.000000,,2013-08-08 14:02:00,
2013-08-08 07:11:00,52.0,52.0,-100.00,ENE,68,1.0,3.0,100,0.00,,,0.06,0.000000,,2013-08-08 14:11:00,
2013-08-08 07:43:00,53.0,53.0,-100.00,ENE,75,1.0,3.0,100,0.00,,,0.06,28.000000,,2013-08-08 14:43:00,
2013-08-08 07:53:00,53.0,53.0,-100.00,ENE,75,1.0,3.0,100,0.00,,,0.06,28.000000,,2013-08-08 14:53:00,
2013-08-08 08:02:00,53.0,53.0,-100.00,ENE,75,1.0,3.0,100,0.00,,,0.06,28.000000,,2013-08-08 15:02:00,
2013-08-08 08:11:00,53.0,53.0,-100.00,ENE,75,1.0,3.0,100,0.00,,,0.06,28.000000,,2013-08-08 15:11:00,
2013-08-08 08:43:00,54.0,54.0,-100.00,NE,54,3.0,4.0,100,0.00,,,-99.99,106.000000,,2013-08-08 15:43:00,
2013-08-08 08:53:00,54.0,54.0,-100.00,NE,54,3.0,4.0,100,0.00,,,-99.99,106.000000,,2013-08-08 15:53:00,
2013-08-08 09:01:00,54.0,54.0,-100.00,NE,54,3.0,4.0,100,0.00,,,-99.99,106.000000,,2013-08-08 16:01:00,
2013-08-08 09:11:00,54.0,54.0,-100.00,NE,54,3.0,4.0,100,0.00,,,-99.99,106.000000,,2013-08-08 16:11:00,
2013-08-08 09:42:00,56.0,56.0,-100.00,ENE,61,3.0,5.0,100,0.00,,,0.06,261.000000,,2013-08-08 16:42:00,
2013-08-08 09:52:00,56.0,56.0,-100.00,ENE,61,3.0,5.0,100,0.00,,,0.06,261.000000,,2013-08-08 16:52:00,
2013-08-08 10:01:00,56.0,56.0,-100.00,ENE,61,3.0,5.0,100,0.00,,,0.06,261.000000,,2013-08-08 17:01:00,
2013-08-08 10:11:00,56.0,56.0,-100.00,ENE,61,3.0,5.0,100,0.00,,,0.06,261.000000,,2013-08-08 17:11:00,
2013-08-08 10:43:00,59.0,58.0,-100.00,NE,37,3.0,6.0,95,0.00,,,0.06,405.000000,,2013-08-08 17:43:00,
2013-08-08 10:52:00,59.0,58.0,-100.00,NE,37,3.0,6.0,95,0.00,,,0.06,405.000000,,2013-08-08 17:52:00,
2013-08-08 11:01:00,59.0,58.0,-100.00,NE,37,3.0,6.0,95,0.00,,,0.06,405.000000,,2013-08-08 18:01:00,
2013-08-08 11:11:00,59.0,58.0,-100.00,NE,37,3.0,6.0,95,0.00,,,0.06,405.000000,,2013-08-08 18:11:00,
2013-08-08 11:43:00,61.0,58.0,-100.00,NNE,23,3.0,6.0,91,0.00,,,0.06,504.000000,,2013-08-08 18:43:00,
2013-08-08 11:52:00,61.0,58.0,-100.00,NNE,23,3.0,6.0,91,0.00,,,0.06,504.000000,,2013-08-08 18:52:00,
2013-08-08 12:01:00,61.0,58.0,-100.00,NNE,23,3.0,6.0,91,0.00,,,0.06,504.000000,,2013-08-08 19:01:00,
2013-08-08 12:11:00,61.0,58.0,-100.00,NNE,23,3.0,6.0,91,0.00,,,0.06,504.000000,,2013-08-08 19:11:00,
2013-08-08 12:43:00,65.0,59.0,-100.00,North,3,3.0,6.0,82,0.00,,,0.06,929.000000,,2013-08-08 19:43:00,
2013-08-08 12:57:00,65.0,59.0,-100.00,North,3,3.0,6.0,82,0.00,,,0.06,929.000000,,2013-08-08 19:57:00,
2013-08-08 13:11:00,65.0,59.0,-100.00,North,3,3.0,6.0,82,0.00,,,0.06,929.000000,,2013-08-08 20:11:00,
2013-08-08 13:42:00,67.0,60.0,-100.00,NNE,18,3.0,6.0,78,0.00,,,0.06,895.000000,,2013-08-08 20:42:00,
2013-08-08 13:52:00,67.0,60.0,-100.00,NNE,18,3.0,6.0,78,0.00,,,0.06,895.000000,,2013-08-08 20:52:00,
2013-08-08 14:01:00,67.0,60.0,-100.00,NNE,18,3.0,6.0,78,0.00,,,0.06,895.000000,,2013-08-08 21:01:00,
2013-08-08 14:34:00,67.0,59.0,-100.00,NNE,25,4.0,7.0,76,0.00,,,0.04,967.000000,,2013-08-08 21:34:00,
2013-08-08 14:45:00,67.0,59.0,-100.00,NNE,25,4.0,7.0,76,0.00,,,0.04,967.000000,,2013-08-08 21:45:00,
2013-08-08 14:55:00,67.0,59.0,-100.00,NNE,25,4.0,7.0,76,0.00,,,0.04,967.000000,,2013-08-08 21:55:00,
2013-08-08 15:12:00,67.0,59.0,-100.00,NNE,25,4.0,7.0,76,0.00,,,0.04,967.000000,,2013-08-08 22:12:00,
2013-08-08 15:49:00,66.0,57.0,-100.00,NNE,17,5.0,9.0,73,0.00,,,0.03,904.000000,,2013-08-08 22:49:00,
2013-08-08 15:56:00,66.0,57.0,-100.00,NNE,17,5.0,9.0,73,0.00,,,0.03,904.000000,,2013-08-08 22:56:00,
2013-08-08 16:03:00,66.0,57.0,-100.00,NNE,17,5.0,9.0,73,0.00,,,0.03,904.000000,,2013-08-08 23:03:00,
2013-08-08 16:49:00,63.0,57.0,-100.00,NNE,20,5.0,11.0,82,0.00,,,0.03,681.000000,,2013-08-08 23:49:00,
2013-08-08 17:02:00,63.0,57.0,-100.00,NNE,20,5.0,11.0,82,0.00,,,0.03,681.000000,,2013-08-09 00:02:00,
2013-08-08 17:12:00,63.0,57.0,-100.00,NNE,20,5.0,11.0,82,0.00,,,0.03,681.000000,,2013-08-09 00:12:00,
2013-08-08 17:48:00,60.0,57.0,-100.00,NNE,21,6.0,11.0,90,0.00,,,0.03,557.000000,,2013-08-09 00:48:00,
2013-08-08 17:55:00,60.0,57.0,-100.00,NNE,21,6.0,11.0,90,0.00,,,0.03,557.000000,,2013-08-09 00:55:00,
2013-08-08 18:01:00,60.0,57.0,-100.00,NNE,21,6.0,11.0,90,0.00,,,0.03,557.000000,,2013-08-09 01:01:00,
2013-08-08 18:12:00,60.0,57.0,-100.00,NNE,21,6.0,11.0,90,0.00,,,0.03,557.000000,,2013-08-09 01:12:00,
2013-08-08 18:46:00,56.0,55.0,-100.00,NNE,18,5.0,9.0,98,0.00,,,0.03,165.000000,,2013-08-09 01:46:00,
2013-08-08 19:03:00,56.0,55.0,-100.00,NNE,18,5.0,9.0,98,0.00,,,0.03,165.000000,,2013-08-09 02:03:00,
2013-08-08 19:47:00,56.0,56.0,-100.00,NNE,17,5.0,10.0,100,0.00,,,0.03,102.000000,,2013-08-09 02:47:00,
2013-08-08 19:56:00,56.0,56.0,-100.00,NNE,17,5.0,10.0,100,0.00,,,0.03,102.000000,,2013-08-09 02:56:00,
2013-08-08 20:04:00,56.0,56.0,-100.00,NNE,17,5.0,10.0,100,0.00,,,0.03,102.000000,,2013-08-09 03:04:00,
2013-08-08 20:12:00,56.0,56.0,-100.00,NNE,17,5.0,10.0,100,0.00,,,0.03,102.000000,,2013-08-09 03:12:00,
2013-08-08 20:47:00,55.0,55.0,-100.00,NNE,19,4.0,10.0,100,0.00,,,0.03,36.000000,,2013-08-09 03:47:00,
2013-08-08 20:55:00,55.0,55.0,-100.00,NNE,19,4.0,10.0,100,0.00,,,0.03,36.000000,,2013-08-09 03:55:00,
2013-08-08 21:01:00,55.0,55.0,-100.00,NNE,19,4.0,10.0,100,0.00,,,0.03,36.000000,,2013-08-09 04:01:00,
2013-08-08 21:12:00,55.0,55.0,-100.00,NNE,19,4.0,10.0,100,0.00,,,0.03,36.000000,,2013-08-09 04:12:00,
2013-08-08 21:33:00,55.0,55.0,-100.00,NNE,18,3.0,7.0,100,0.00,,,0.03,1.000000,,2013-08-09 04:33:00,
2013-08-08 21:43:00,55.0,55.0,-100.00,NNE,18,3.0,7.0,100,0.00,,,0.03,1.000000,,2013-08-09 04:43:00,
2013-08-08 21:53:00,55.0,55.0,-100.00,NNE,18,3.0,7.0,100,0.00,,,0.03,1.000000,,2013-08-09 04:53:00,
2013-08-08 22:01:00,55.0,55.0,-100.00,NNE,18,3.0,7.0,100,0.00,,,0.03,1.000000,,2013-08-09 05:01:00,
2013-08-08 22:11:00,55.0,55.0,-100.00,NNE,18,3.0,7.0,100,0.00,,,0.03,1.000000,,2013-08-09 05:11:00,
2013-08-08 22:43:00,54.0,54.0,-100.00,NW,326,3.0,5.0,100,0.00,,,0.03,0.000000,,2013-08-09 05:43:00,
2013-08-08 22:52:00,54.0,54.0,-100.00,NW,326,3.0,5.0,100,0.00,,,0.03,0.000000,,2013-08-09 05:52:00,
2013-08-08 23:01:00,54.0,54.0,-100.00,NW,326,3.0,5.0,100,0.00,,,0.03,0.000000,,2013-08-09 06:01:00,
2013-08-08 23:11:00,54.0,54.0,-100.00,NW,326,3.0,5.0,100,0.00,,,0.03,0.000000,,2013-08-09 06:11:00,
2013-08-08 23:43:00,53.0,53.0,-100.00,WNW,302,2.0,5.0,100,0.00,,,0.02,0.000000,,2013-08-09 06:43:00,
2013-08-08 23:52:00,53.0,53.0,-100.00,WNW,302,2.0,5.0,100,0.00,,,0.02,0.000000,,2013-08-09 06:52:00,